Vertical_Velocity
1 -0 0 1 2 -0 2 1 1 0 0 -0 -1 -2 -1 -2 0 2 -1 1 1 1 -2 -2 -0 0 -1 -2 -3 5 -1 1 2 -1 1 -0 -4 -2 -2 -1 -2 -6 -3 -3 -2 -0 -4
1 2 0 -2 0 1 -1 -0 0 4 -2 -0 1 -0 -3 1 -2 -0 3 1 1 -3 1 -2 0 1 1 2 -0 -2 1 -0 2 -1 2 -0 -3 -2 0 -2 -2 -5 -3 0 -1 -0 -4
-0 -2 1 1 -0 -0 1 -1 0 1 1 2 -0 -1 0 -1 1 -0 -0 2 -3 1 0 -3 -2 -2 2 -4 -1 2 2 -0 0 -0 -0 0 -2 -2 1 0 -2 -5 -1 20 -7 -4 -2
1 0 -1 -0 1 2 -0 1 0 -1 -1 0 1 1 -1 2 0 2 2 -0 -3 2 -2 -0 -3 -4 6 -0 -1 -1 3 0 0 1 -1 -0 -1 -2 -1 1 -4 -6 -2 15 -8 -3 4
0 1 1 2 0 0 1 2 2 1 -2 -3 -3 -0 3 0 1 3 -0 -3 -1 -1 -1 -1 -1 -5 2 -0 0 -4 5 1 2 1 1 -1 -1 -2 -0 -0 -5 -12 3 2 0 -3 -1
1 2 2 -1 -2 1 1 4 3 2 -2 -1 -0 -3 -3 -1 2 -0 3 -2 -1 -2 -1 -3 -0 -3 2 -1 -2 -0 -2 2 0 -0 -0 -0 -2 -2 -2 -0 -4 22 4 1 0 4 -4
-1 2 1 1 -1 -0 2 2 2 1 3 -1 2 -2 -3 0 0 1 0 1 -1 -7 8 -3 1 -4 -1 1 -5 0 1 2 1 -0 0 0 -3 -2 -2 2 -1 -7 -7 10 -22 3 -7
-1 0 0 -1 0 -3 -3 -0 4 1 3 1 1 0 -1 -1 1 1 -1 -3 3 -7 6 1 -2 4 -0 -3 1 1 -0 2 5 1 -2 0 -2 -2 -1 -1 -0 -1 -5 -3 9 -3 -0
0 -2 -1 0 0 2 -2 -1 2 1 3 2 -0 -2 0 0 -2 2 -1 -1 5 -4 -13 11 4 2 -7 -1 -2 -1 -2 3 6 -0 1 -1 -4 -1 1 -1 -0 -0 -6 5 3 4 -2
-0 -1 -0 -1 1 -1 -2 -3 2 -1 -1 6 -1 0 1 0 -2 -10 8 -1 0 -4 -19 12 -6 -1 -2 1 -11 -4 7 2 -5 1 1 -2 -2 -0 0 -0 -1 -2 -3 -5 -6 -2 9
-3 -0 -1 -2 -2 -1 -0 -1 -0 5 -2 1 3 -0 -1 7 -13 13 -23 8 1 1 -33 -11 -1 2 -1 -9 -3 7 1 -5 3 5 -1 6 -3 -1 1 0 -1 -2 -3 1 2 -2 -6
-1 -3 -3 -2 -2 -1 -1 -3 -3 -1 1 -5 0 2 2 4 -9 6 9 1 1 0 -34 -16 -9 0 2 -3 -1 -1 1 -0 6 -3 -1 1 -2 0 -1 0 -2 -0 -2 -2 -2 1 -4
-1 -0 -0 -2 -0 0 1 2 2 1 4 -2 -1 1 4 -5 19 -1 2 4 -3 -41 9 -8 3 5 -1 -4 1 -1 -1 1 -0 0 -1 4 -1 -0 -2 0 -2 -0 -2 -4 11 -3 -8
0 1 1 1 -1 -1 0 1 1 2 2 -1 -1 -3 5 3 11 4 10 14 -22 -3 -3 -6 3 6 3 -6 0 3 -5 -1 -3 -5 1 1 -8 1 5 2 -1 -0 -3 -3 3 5 1
2 0 3 2 3 2 1 2 1 2 2 2 -3 -4 -6 14 23 9 12 8 -76 40 13 -2 4 1 -0 -2 4 0 1 1 5 10 -0 -2 -0 -3 -3 2 -1 1 -5 5 -2 -3 -4
1 1 1 2 2 2 0 3 3 2 3 2 -3 -7 0 6 24 7 10 -17 -27 5 12 -4 -3 8 2 9 -2 3 1 12 3 -1 5 -1 -0 -7 -4 -1 -1 -3 3 -4 -3 2 2
0 1 0 -1 1 1 3 2 2 5 6 5 -4 -17 22 8 17 4 -36 -50 5 18 4 -4 11 3 5 -0 3 1 1 7 8 -1 11 5 4 -4 -6 1 -1 -0 -0 -4 2 -4 6
-0 -3 -0 -2 -0 2 3 6 2 3 11 -5 2 -22 7 10 0 -7 -55 -67 11 15 22 5 -5 1 -1 7 -1 4 -0 7 11 2 -17 4 2 -1 4 1 3 9 -1 -1 -3 0 1
-3 -2 -2 -4 -4 -2 2 2 6 5 4 13 -17 6 9 3 -37 -26 9 -13 19 14 1 5 4 4 3 -2 1 5 3 9 4 -7 -6 8 -5 1 2 -7 2 -4 -2 -1 -0 1 1
-4 -4 1 -0 -1 -1 -1 1 3 8 10 5 -1 -6 0 -29 12 -27 -15 -14 2 6 6 4 13 9 -2 1 5 3 3 -3 11 -2 5 7 0 7 1 5 -0 -6 -0 -2 -3 -1 2
2 1 6 5 2 3 12 5 5 9 8 20 0 -38 -8 -33 -39 -0 25 33 7 7 -3 15 -2 -8 7 8 1 -1 9 -1 6 -6 3 2 -3 1 4 -1 7 -2 -2 -3 -4 -2 -5
0 3 -1 -2 -2 2 6 19 19 8 18 18 6 -27 -17 2 11 -9 -1 0 11 15 11 -12 9 10 13 5 7 -2 6 9 2 -3 0 2 2 2 -0 1 -1 -5 0 -2 1 1 -4
-2 2 1 1 2 -0 1 -0 3 7 15 27 -1 17 -4 9 6 9 -36 20 -3 27 -7 10 27 3 18 7 58 -6 3 0 12 1 5 2 4 -1 -1 -0 3 -12 4 -5 1 -1 -1
-2 1 -1 2 5 5 6 3 2 7 1 10 -10 19 1 -5 1 -30 6 11 14 -0 12 24 4 0 19 -1 -15 9 -4 -9 5 -2 2 -1 3 1 -3 4 -12 5 4 -1 -2 -1 -2
1 -4 1 0 1 17 6 3 7 9 9 -3 12 4 -6 -0 2 24 -11 -13 9 0 17 16 0 12 -4 5 9 1 -5 -2 5 18 -0 0 0 3 -11 3 12 5 -4 2 -2 1 -1
-3 1 4 -0 -1 4 9 3 2 4 9 -1 15 16 -2 5 -30 31 6 14 1 -2 14 -5 18 -3 -25 -1 -6 -9 -16 27 -6 2 3 9 -2 -0 -1 -6 -7 14 2 2 4 -16 3
2 -1 3 6 -1 1 -0 -1 5 1 3 3 12 5 4 11 10 11 -4 -10 21 17 8 23 -5 -12 2 5 -8 -0 -2 6 -19 -8 5 18 2 -9 3 -6 2 4 5 0 -6 26 5
0 11 -0 -2 -1 -2 -4 -1 3 -1 6 3 2 4 4 7 16 0 -1 0 0 -10 10 2 10 -7 2 -9 -9 -2 -1 6 -9 8 2 8 -0 -4 2 -5 -12 -3 -4 -4 9 -1 1
-2 3 -4 1 -6 -3 -2 1 2 8 3 1 8 5 10 11 7 3 -1 2 8 13 33 -5 -27 26 9 20 -6 7 -10 -5 8 -2 3 -11 -2 15 1 11 3 -0 -1 5 2 -1 -3
Height
5754 5757 5759 5761 5763 5765 5767 5770 5771 5773 5775 5777 5780 5781 5783 5785 5786 5787 5789 5791 5792 5794 5794 5794 5794 5793 5793 5793 5793 5791 5789 5788 5786 5784 5782 5779 5776 5772 5768 5767 5765 5762 5761 5760 5758 5759 5758
5740 5743 5745 5748 5750 5753 5755 5758 5760 5762 5764 5767 5769 5772 5774 5776 5778 5778 5781 5783 5784 5786 5787 5788 5788 5787 5788 5787 5787 5787 5785 5783 5782 5780 5778 5776 5774 5770 5767 5765 5764 5762 5759 5759 5757 5757 5757
5727 5729 5732 5735 5738 5740 5743 5745 5748 5750 5753 5755 5758 5761 5764 5766 5768 5770 5771 5774 5776 5778 5781 5782 5781 5781 5782 5782 5782 5781 5781 5778 5777 5777 5775 5773 5771 5768 5765 5763 5761 5760 5759 5760 5755 5756 5757
5714 5717 5718 5721 5724 5726 5729 5732 5735 5738 5741 5744 5746 5749 5753 5755 5757 5760 5763 5764 5767 5770 5774 5774 5774 5773 5777 5775 5775 5776 5776 5774 5773 5773 5772 5771 5769 5765 5763 5761 5760 5759 5758 5761 5753 5750 5757
5700 5702 5705 5707 5709 5713 5715 5719 5721 5724 5728 5733 5735 5737 5740 5744 5747 5749 5753 5756 5758 5760 5764 5766 5767 5767 5770 5771 5770 5771 5770 5770 5769 5768 5768 5767 5766 5763 5761 5759 5758 5760 5760 5759 5757 5755 5757
5686 5687 5690 5693 5695 5697 5700 5703 5708 5711 5714 5718 5723 5726 5729 5732 5735 5739 5742 5746 5749 5751 5754 5757 5759 5761 5763 5765 5764 5764 5763 5765 5764 5764 5764 5764 5763 5760 5758 5758 5761 5764 5760 5761 5757 5754 5755
5672 5674 5675 5678 5681 5685 5687 5690 5694 5698 5700 5704 5708 5712 5718 5720 5724 5727 5732 5734 5739 5741 5745 5748 5750 5753 5754 5757 5758 5757 5757 5758 5760 5760 5759 5760 5759 5757 5757 5759 5756 5756 5758 5760 5754 5752 5754
5655 5658 5661 5662 5665 5668 5671 5675 5679 5683 5687 5690 5694 5699 5705 5709 5712 5716 5720 5723 5726 5730 5734 5737 5740 5745 5748 5749 5750 5751 5751 5753 5753 5754 5754 5756 5756 5754 5753 5754 5753 5753 5754 5758 5759 5755 5755
5636 5638 5641 5645 5647 5650 5653 5658 5662 5665 5670 5675 5679 5684 5689 5696 5700 5705 5708 5712 5715 5717 5720 5729 5732 5735 5741 5739 5744 5743 5744 5747 5747 5747 5749 5751 5752 5751 5751 5751 5751 5750 5750 5755 5755 5752 5752
5616 5619 5620 5624 5627 5630 5634 5638 5644 5648 5652 5656 5662 5668 5674 5682 5688 5692 5696 5701 5704 5706 5709 5717 5725 5726 5729 5732 5732 5738 5738 5740 5740 5743 5743 5747 5748 5748 5747 5748 5747 5747 5748 5747 5748 5749 5753
5594 5596 5600 5602 5604 5608 5613 5617 5622 5627 5631 5637 5644 5650 5659 5666 5672 5681 5683 5688 5692 5695 5700 5706 5711 5718 5720 5725 5730 5728 5732 5730 5735 5738 5738 5744 5743 5743 5743 5744 5744 5744 5742 5743 5744 5747 5750
5574 5575 5577 5580 5584 5587 5590 5595 5600 5604 5609 5615 5622 5630 5638 5648 5657 5662 5671 5674 5678 5684 5691 5696 5701 5707 5711 5716 5718 5720 5721 5725 5730 5729 5732 5736 5738 5739 5739 5739 5741 5741 5741 5741 5743 5744 5746
5555 5558 5561 5563 5567 5571 5575 5578 5582 5585 5589 5593 5600 5608 5619 5627 5641 5643 5650 5655 5660 5669 5685 5689 5694 5697 5702 5707 5709 5711 5714 5717 5720 5723 5728 5730 5733 5734 5734 5735 5737 5738 5739 5740 5742 5744 5743
5541 5544 5547 5550 5553 5557 5561 5565 5569 5572 5576 5579 5582 5588 5598 5611 5619 5623 5629 5632 5637 5670 5674 5678 5684 5689 5694 5698 5701 5704 5706 5708 5711 5716 5721 5723 5725 5728 5730 5731 5734 5734 5736 5738 5739 5740 5742
5527 5529 5532 5535 5538 5542 5546 5550 5554 5558 5561 5564 5568 5576 5585 5596 5600 5600 5604 5605 5631 5660 5665 5671 5674 5680 5684 5688 5693 5695 5698 5702 5707 5711 5715 5718 5721 5722 5723 5725 5728 5731 5731 5736 5735 5736 5737
5512 5515 5518 5522 5526 5530 5533 5537 5541 5544 5547 5549 5554 5564 5575 5580 5582 5579 5580 5588 5626 5644 5652 5656 5665 5670 5676 5681 5684 5687 5690 5694 5699 5703 5710 5712 5715 5715 5716 5719 5722 5724 5728 5729 5730 5732 5733
5496 5499 5502 5506 5510 5514 5518 5522 5526 5530 5533 5534 5540 5548 5562 5564 5559 5555 5561 5584 5617 5626 5633 5642 5652 5659 5666 5671 5675 5679 5684 5688 5692 5695 5701 5705 5709 5710 5710 5714 5717 5719 5721 5723 5728 5729 5728
5479 5481 5484 5487 5491 5496 5501 5506 5510 5514 5517 5517 5524 5536 5543 5540 5542 5547 5561 5588 5608 5613 5615 5622 5634 5646 5654 5660 5664 5669 5674 5678 5685 5687 5691 5699 5703 5703 5707 5709 5711 5715 5716 5717 5719 5724 5724
5458 5460 5463 5466 5470 5475 5480 5486 5491 5496 5497 5503 5508 5520 5524 5522 5531 5545 5562 5572 5591 5594 5598 5609 5621 5632 5640 5648 5655 5660 5666 5669 5673 5676 5682 5691 5690 5697 5702 5702 5703 5707 5711 5714 5715 5717 5717
5435 5436 5438 5440 5444 5449 5454 5462 5468 5475 5481 5484 5488 5496 5505 5510 5528 5538 5552 5559 5565 5581 5592 5599 5610 5618 5628 5638 5645 5651 5656 5659 5666 5669 5678 5682 5685 5689 5694 5699 5700 5700 5702 5707 5709 5708 5710
5409 5408 5407 5408 5411 5415 5422 5429 5439 5451 5460 5465 5463 5472 5495 5505 5517 5532 5532 5543 5554 5565 5579 5594 5596 5606 5619 5628 5635 5639 5647 5649 5657 5660 5667 5672 5676 5681 5686 5691 5696 5698 5697 5699 5702 5704 5704
5376 5373 5371 5371 5375 5381 5389 5401 5412 5427 5439 5441 5441 5460 5481 5497 5509 5513 5520 5528 5536 5554 5566 5580 5593 5598 5610 5617 5626 5630 5636 5641 5647 5653 5659 5664 5668 5675 5677 5682 5686 5689 5692 5694 5698 5700 5700
5341 5340 5341 5345 5351 5358 5367 5379 5395 5407 5418 5417 5428 5453 5465 5484 5492 5497 5508 5522 5530 5546 5555 5568 5583 5595 5600 5608 5619 5616 5624 5631 5640 5644 5648 5656 5659 5666 5669 5675 5678 5677 5682 5686 5689 5691 5693
5315 5312 5311 5312 5320 5331 5344 5358 5373 5388 5398 5407 5427 5446 5452 5467 5474 5495 5504 5511 5516 5530 5547 5557 5565 5583 5595 5595 5598 5608 5615 5621 5631 5636 5640 5646 5653 5660 5662 5666 5663 5674 5676 5680 5680 5683 5685
5290 5288 5285 5288 5294 5307 5318 5334 5350 5366 5384 5396 5420 5430 5444 5459 5475 5481 5488 5498 5505 5519 5529 5541 5557 5574 5579 5583 5592 5598 5605 5612 5623 5630 5635 5640 5646 5650 5653 5657 5663 5668 5670 5674 5675 5677 5679
5271 5266 5266 5267 5275 5289 5303 5317 5331 5347 5367 5388 5410 5427 5439 5454 5463 5476 5480 5486 5493 5504 5518 5531 5549 5556 5566 5579 5583 5587 5594 5606 5612 5618 5625 5633 5637 5642 5646 5649 5650 5664 5666 5669 5669 5669 5673
5251 5248 5247 5250 5260 5274 5292 5307 5322 5338 5360 5384 5404 5421 5435 5447 5456 5465 5469 5478 5486 5496 5510 5523 5537 5547 5559 5573 5576 5580 5586 5597 5603 5611 5619 5624 5628 5633 5639 5641 5648 5657 5660 5662 5661 5675 5665
5237 5233 5235 5243 5256 5272 5289 5305 5321 5337 5362 5381 5402 5417 5431 5441 5451 5455 5463 5470 5475 5485 5499 5516 5528 5534 5551 5562 5572 5575 5579 5586 5594 5602 5608 5616 5622 5627 5634 5634 5638 5650 5653 5654 5659 5658 5655
5234 5233 5242 5254 5266 5281 5297 5313 5330 5348 5367 5383 5400 5412 5425 5436 5445 5452 5460 5464 5470 5481 5498 5507 5524 5538 5552 5558 5565 5572 5574 5581 5588 5593 5600 5608 5614 5621 5626 5629 5634 5640 5645 5647 5648 5648 5648